Voltar ao catálogo

STARLINK-1047

AtivoComunicaçõesVLEO
NORAD 44752·PAYLOAD·🇺🇸 United States

Lançado Nov 11, 2019 de Cape Canaveral Space Force Station

Loading…

Próximas Passagens (próximas 24 horas)

TLE

AtualizadoSource: CelesTrak SupGP

Época: Sep 14, 2026, 20:41 UTC

1 44752C 19074AR  26257.86229167 -.00005257  00000+0 -13752-3 0  2574
2 44752  53.0675 339.0033 0002517  55.4153  87.8587 15.38171380    10

Acompanhe STARLINK-1047 em tempo real com AllMySat

Download on the App Store